Voltar ao catálogo

FENGYUN 1C DEB

AtivoSSO
NORAD 37429·DEBRIS·🇨🇳 China

Lançado May 10, 1999 de Taiyuan Satellite Launch Center

Loading…

Próximas Passagens (próximas 24 horas)

TLE

EnvelhecendoSource: Space-Track

Época: Sep 10, 2026, 04:19 UTC

1 37429U 99025EGX 26253.18047653  .00000531  00000-0  30967-3 0  9999
2 37429  98.6619 238.0093 0102575 308.8038  50.4007 14.10016285669118

Acompanhe FENGYUN 1C DEB em tempo real com AllMySat

Download on the App Store